Погода Радужный

Погода Радужный : погода сейчас, прогноз погоды и архив. Всё, что Вы хотите узнать о погоде Радужный!

Поиск расширенной информации на нашем сайте:

Другие новости

Новости СМИ2

Главная страница сайта

Новости сайта

03.07.2017

Напоминаем, что на нашем специализированном сайте Метеоцентр.Азия вы можете получить высокодетализированные автоматические прогнозы погоды по пунктам России, СНГ и мира в авиационном формате (включающие направление и скорость ветра, видимость, явления погоды, количество и форму облачности, нижнюю и верхнюю границу облачности).

Рекомендуем: Смотрите подробности stanley finance отзывы клиентов у нас на сайте.

Погода Радужный - сегодня

Время (UTC), дата Ветер
(°,м/с) 
Видим.   Явления Облачность Т
(°С)
Тd
(°С)
f(%) Тe
(°С)
Pmin
(гПа)
dP
(гПа)
Po
(мм)
O2
(г/м3)
Тmin Tmax R s Состояние
почвы
21 15.10.17 020 (С) 10 км    10/8 240 м средняя 
[Frnb|Ac und]
+0.3 -1 91 1014.5  0.7  754  304           
00 16.10.17 020 (С) 10 км    10/10 210 м 
[Frnb]
-0.2 -1.6 90 -1  1015.6  1.2  755  305           
03 16.10.17 020 (С) 10 км    10/8 360 м средняя 
[Frnb|Ac und]
-1.9 -5 79 -4  1017.9  2.2  757  308  -2.1         
06 16.10.17 020 (С) 10 км    10/8 700 м средняя 
[Sc|Ac und]
-1.7 -7 67 -4  1019.8  1.8  758  308           
09 16.10.17 360 (С) 10 км    10/10 450 м кучево-дожд. 
[Cb cap]
-1.7 -7.1 67 -3  1021.4  1.6  760  309           
12 16.10.17 330 (СЗ) 10 км    10/10 630 м 
[Sc]
-2.4 -7.2 70 -3  1023.3  1.9  761  310           
15 16.10.17 360 (С) 10 км    10/10 700 м 
[Sc]
-2.6 -8 66 -2  1024.8  1.5  762  311    -1.5       
18 16.10.17 тихо ()   10 км    10/10 330 м 
[Frnb]
-3.2 -7.9 70 -3  1025.9  763  312           
21 16.10.17 210 (ЮЗ) 10 км    8/8 270 м 
[Frnb]
-3.6 -8.5 69 -3  1026.2  0.3  763  312           
00 17.10.17 240 (ЮЗ) 10 км    10/10 210 м 
[Frnb]
-3.5 -7.9 72 -5  1026.9  0.8  764  313           
03 17.10.17 200 (Ю) 10 км    10/8 210 м кучево-дожд., средняя, верхняя 
[Cb cap|Ac trans|Ci fib]
-4 -6.3 84 -5  1027.2  0.3  764  313  -4         
06 17.10.17 190 (Ю) 10 км    8/4 600 м средняя, верхняя 
[Sc|Ac trans|Ci fib]
-2.8 -7.9 68 -6  1026.6  -0.6  763  312           
09 17.10.17 190 (Ю) 10 км    8/4 600 м средняя, верхняя 
[Sc|Ac trans|Ci fib]
-1.3 -7.5 63 -3  1025.3  -1.2  762  309           
12 17.10.17 180 (Ю) 10 км    10/6 700 м средняя 
[Sc|Ac und]
-1.6 -6.7 68 -4  1024.4  -0.9  762  309           
15 17.10.17 160 (Ю) 10 км    10/8 600 м средняя 
[Sc|Ac und]
-1.5 -6.2 70 -4  1022.7  -1.7  761  309    -1  0.0     
18 17.10.17 160 (Ю) 10 км    10/8 330 м средняя 
[Frnb|Ac und]
-1.4 -5.1 76 -3  1020.6  -2.1  759  308           
21 17.10.17 190 (Ю) 10 км    10/8 330 м средняя 
[Frnb|Ac und]
-1.5 -4.5 80 -4  1019.7  -0.8  758  308           
00 18.10.17 180 (Ю) 10 км    10/8 300 м средняя 
[Frnb|Ac und]
-1.5 -3.9 84 -3  1018  -1.8  757  307           
03 18.10.17 150 (ЮВ) 10 км    9/9 270 м 
[Frnb]
-1.2 -3.4 85 -4  1016.3  -1.6  756  306  -1.7         
06 18.10.17 160 (Ю) 10 км    10/10 210 м 
[Frnb]
-1.8 -3.4 89 -5  1015.8  -0.5  755  307  -2.3         
09 18.10.17 150 (ЮВ) 10 км    10/10 150 м 
[Frnb]
-1.4 -2.8 90 -4  1014.4  -1.4  754  306           
12 18.10.17 140 (ЮВ) 6-10{10}  10 км    10/10 150 м 
[Frnb]
-1.2 -2.3 92 -5  1012.2  -2.2  753  305           
15 18.10.17 150 (ЮВ) 6-10{11}  10 км    10/10 180 м 
[Frnb]
-0.7 -2.5 88 -4  1011.3  -0.9  752  304    -0.7       
18 18.10.17 160 (Ю) 5{10}  10 км    ясно 
-1.3 -3.5 85 -5  1010  -1.3  751  304           
21 18.10.17 160 (Ю) 10 км    ясно 
-2.6 -4.4 87 -6  1009.2  -0.8  750  306           
Время (UTC), дата Ветер
(°,м/с) 
Видим.   Явления Облачность Т
(°С)
Тd
(°С)
f(%) Тe
(°С)
Pmin
(гПа)
dP
(гПа)
Po
(мм)
O2
(г/м3)
Тmin Tmax R s Состояние
почвы

Для получения пояснительной информации подведите курсор к названию столбца.

ПОГОДА Радужный - архив

Всё, что Вы хотите узнать о погоде Радужный - удобно и подробно!

Выберите нужную дату (начиная с 1 января 2015* года) и нажмите кнопку "Найти".
Будут отображены архивные сводки погоды по пункту Радужный, начиная с указанной даты.


Отображать данные в формате CSV (для использования в таблицах Excel)


Внимание! Наш архив погоды предназначен исключительно для личного некоммерческого использования в познавательных целях. Если Вам необходимы официальные справки о состоянии погоды (для производственных, юридических, коммерческих и т.п. целей), обращайтесь в органы Росгидромета.

*Примечание: данная дата относится к архиву по метеостанциям СССР (Россия, СНГ, Балтия).
Архив по метеостанциям Зарубежной Европы и Азии (кроме Китая) хранится 10 дней, по другим регионам земного шара (Китай, Африка, Америка, Австралия, Океания) - 1 день.

Радужный - район местоположения метеостанции


Название, широта, долгота, высота метеостанции:
Радужный 62.1°ш. 77.3°д. 73 м над ур. моря [Российская Федерация]

Дополнительная информация

В oтличие oт бoльшинства пoгoдных сайтoв мы публикуем пoдрoбную метеoинфoрмацию в детальнoм прoфессиoнальнoм фoрмате.

Характеристики температуры и влажнoсти вoздуха измеряются на высoте 2 м в тени вдали oт зданий и деревьев.
Скoрoсть ветра измеряется на высoте 10 м (на урoвне рoста челoвека скoрoсть ветра ниже в 1.5-2 раза). Если метеoстанция нахoдится в гoрoде или в лесу, тo скoрoсть ветра занижена на 2-4 м/с пo сравнению с oткрытым местoм. Скoрoсть ветра над акватoриями крупных рек и oзёр, а также на вершинах хoлмoв на 2-5 м/с выше, чем в oбычных услoвиях.
Атмoсфернoе давление в разных тoчках местнoсти мoжет значительнo oтличаться oт давления на метеoстанции, в зависимoсти oт услoвий рельефа (при пoдъёме на 10 м давление пoнижается примернo на 1 мм рт.ст.).